Location: Liberty
(32.6612°N, 88.7589°W)
Time: 08:04:44
(UTC+00:00)

N. Korean satellite - Visible Passes

Search period start: 29 January 2022 00:00
Search period end: 08 February 2022 00:00
Orbit: 447 x 490 km, 97.3° (Epoch: 28 January)

Date Brightness Start Highest point End Pass type
(mag) Time Alt. Az. Time Alt. Az. Time Alt. Az.
29 Jan 8.7 10:39:11 10° NNE 10:44:48 18° SSE 10:45:53 10° SSE visible
29 Jan 8.6 12:14:43 10° WNW 12:18:50 - WSW 12:14:57 10° WNW visible
30 Jan 9.8 10:11:09 10° ENE 10:15:07 10° SE 10:15:12 10° SE visible
30 Jan 7.6 11:43:17 10° NNW 11:49:08 10° SW 11:49:14 10° SW visible
31 Jan 6.4 11:13:32 10° N 11:19:20 22° SSW 11:20:40 10° SSW visible
01 Feb 7.7 10:44:24 10° NNE 10:47:52 43° E 10:51:17 10° S visible
02 Feb 9.4 10:16:04 10° NE 10:18:28 17° E 10:20:51 10° SE visible
02 Feb 7.8 11:48:44 10° NNW 11:51:29 21° WNW 11:54:13 10° WSW visible
03 Feb 6.6 11:18:48 10° N 11:22:20 53° WNW 11:25:48 10° SSW visible
04 Feb 7.3 10:49:32 10° NNE 10:53:03 52° E 10:56:31 10° S visible
05 Feb 9.2 10:20:57 10° NE 10:23:38 20° E 10:26:16 10° SE visible
05 Feb 8.0 11:54:06 10° NNW 11:56:35 18° WNW 11:59:02 10° WSW visible
06 Feb 6.8 11:23:58 10° N 11:27:25 44° WNW 11:30:47 10° SSW visible
07 Feb 6.9 10:54:33 10° NNE 10:58:06 63° E 11:01:36 10° S visible
